Location: Dumpton Point
(51.3500°N, 1.4433°E)
Time: 23:57:02
(UTC+00:00)

Vanguard 2 Rocket - Pass Details

Date: 01 October 2022
Orbit: 555 x 3321 km, 32.9° (Epoch: 09 December)

Event Time Altitude Azimuth Distance (km) Brightness Sun altitude
Rises 01:46:24 0° 247° (WSW) 5,133 - -35.4°
Reaches altitude 10° 01:51:44 10° 230° (SW) 3,538 - -34.9°
Maximum altitude 01:56:38 17° 195° (SSW) 2,512 - -34.4°
Drops below altitude 10° 02:00:23 10° 156° (SSE) 2,567 - -34.0°
Sets 02:03:23 0° 135° (SE) 3,202 - -33.7°
